Flag for Germany Weather past 2 weeks in Hückelhoven, North Rhine-Westphalia, Germany

Now
43 °F

Passing clouds.


Feels Like: 34 °F
Forecast: 39 / 47 °F
Wind: 18 mph from West

Location: Geilenkirchen Airport

Current Time: Mar 31, 2015 at 11:13:26 PM

Latest Report: Mar 31, 2015 at 9:50 PM


Visibility: N/A

Pressure: 29.86 "Hg

Humidity: 81%

Dew point: 37 °F

Location of HückelhovenLocation

Historic Weather in Hückelhoven — Graph

°F

Hückelhoven temperature yesterday

Maximum temperature yesterday: 50 °F (at 2:50 PM)
Minimum temperature yesterday: 45 °F (at 5:50 AM)
Average temperature yesterday: 47 °F

Past Weeks' High & Low Weather Summary

 TemperatureHumidityPressure
High63 °F (Mar 17, 3:50 PM)100% (Mar 17, 3:50 AM)30.39 "Hg (Mar 17, 3:50 AM)
Low28 °F (Mar 23, 6:50 AM)45% (Mar 17, 3:50 PM)29.36 "Hg (Mar 31, 4:50 AM)
Average45 °F80%29.98 "Hg
* Reported Mar 16 8:50 PM — Mar 31 9:50 PM, Hückelhoven, Weather by CustomWeather, © 2015

Note: Actual official high and low records may vary slightly from our data, if they occured in-between our weather recording intervals... More about our weather records

Advertising

Hückelhoven weather history for previous 24 hours

 ConditionsComfort  
Time TempWeatherWind HumidityBarometerVisibility
9:50 PM
Tue, Mar 31
43 °FPassing clouds.18 mph81%29.86 "HgN/A
8:50 PM41 °FScattered clouds.31 mph87%29.83 "HgN/A
7:50 PM45 °FThunderstorms. Partly sunny.31 mph71%29.83 "Hg6 mi
6:50 PM50 °FThunderstorms. Scattered clouds.30 mph50%29.77 "HgN/A
5:50 PM52 °FScattered showers. Scattered clouds.35 mph47%29.77 "HgN/A
4:50 PM50 °FSunny.32 mph50%29.74 "Hg10 mi
3:50 PM52 °FScattered showers. Scattered clouds.37 mph50%29.71 "HgN/A
2:50 PM50 °FScattered clouds.32 mph62%29.65 "HgN/A
1:50 PM54 °FSprinkles. Scattered clouds.44 mph51%29.62 "HgN/A
12:50 PM52 °FScattered showers. Broken clouds.39 mph54%29.56 "HgN/A
11:50 AM54 °FPartly sunny.44 mph58%29.50 "HgN/A
10:50 AM52 °FPartly sunny.39 mph67%29.50 "HgN/A
9:50 AM48 °FSprinkles. Broken clouds.30 mph87%29.45 "Hg4 mi
8:50 AM52 °FBroken clouds.33 mph82%29.42 "HgN/A
7:50 AM52 °FPassing clouds.32 mph82%29.36 "Hg5 mi
6:50 AM50 °FRain. Partly cloudy.31 mph94%29.36 "Hg3 mi
5:50 AM52 °FRain. Passing clouds.31 mph94%29.36 "Hg5 mi
4:50 AM52 °FLight rain. Passing clouds.32 mph94%29.36 "HgN/A
3:50 AM54 °FLight rain. Passing clouds.35 mph82%29.39 "HgN/A
2:50 AM50 °FLight rain. Passing clouds.23 mph88%29.45 "HgN/A
1:50 AM48 °FLight rain. Passing clouds.20 mph82%29.53 "HgN/A
12:50 AM45 °FLight rain. Partly cloudy.10 mph87%29.62 "HgN/A
11:50 PM
Mon, Mar 30
45 °FLight rain. Passing clouds.9 mph81%29.71 "HgN/A
Weather by CustomWeather, © 2015

See weather overviewHow to use our weather pages